Location: Campillo
(40.8621°N, 4.2488°W)
Time: 23:23:27
(UTC+00:00)

USA 308 - Pass Details

Date: 26 September 2021
Orbit: 566 x 573 km, 54.0° (Epoch: 23 September)

Event Time Altitude Azimuth Distance (km) Brightness Sun altitude
Rises 19:23:09 0° 312° (NW) 2,770 7.5 -15.1°
Reaches altitude 10° 19:26:03 10° 333° (NNW) 1,873 6.1 -15.7°
Maximum altitude 19:28:57 18° 16° (NNE) 1,451 4.9 -16.2°
Enters shadow 19:30:44 14° 45° (NE) 1,623 4.9 -16.5°
